Location: Brachbach
(49.1847°N, 9.7240°E)
Time: 05:43:53
(UTC+00:00)

PCSat - Pass Details

Date: 20 March 2026
Orbit: 780 x 790 km, 67.1° (Epoch: 13 April)

Event Time Altitude Azimuth Distance (km) Brightness Sun altitude
Exits shadow 21:18:27 15° 30° (NNE) 2,017 11.8 -33.3°
Drops below altitude 10° 21:19:23 10° 32° (NNE) 2,363 12.2 -33.4°
Sets 21:21:50 0° 35° (NE) 3,296 13.0 -33.7°
